Location: Biltmore Gardens
(41.6070°N, 83.4666°W)
Time: 00:55:59
(UTC+00:00)

Daily predictions for brighter satellites

Satellite Brightness Start Highest point End
(mag) Time Altitude Azimuth Time Altitude Azimuth Time Altitude Azimuth
Cosmos 1825 Rocket 3.6 01:37:42 10° S 01:42:09 89° E 01:46:39 10° N
SJ-6B 3.6 01:38:57 10° S 01:42:56 57° W 01:47:00 10° NNW
Cosmos 1844 Rocket 3.7 01:39:31 10° NW 01:44:49 46° WSW 01:50:06 10° S
Hubble Space Telescope 2.8 01:43:30 10° SSW 01:45:27 13° S 01:47:23 10° SSE
ATLAS 2AS CENTAUR R/B 3.7 01:40:26 10° NNW 01:47:28 38° NE 01:53:57 10° ESE
H-2A R/B 3.9 01:42:41 10° SSW 01:47:31 32° W 01:52:20 10° NNW
BREEZE-M DEB (TANK) 3.5 01:40:22 10° SW 01:48:39 49° SSE 01:51:21 10° ENE
Cosmos-2242 3.1 01:45:41 10° N 01:50:05 88° WSW 01:54:28 10° S
Resurs 1-3 3.6 01:46:55 10° SSE 01:51:17 84° ENE 01:55:41 10° N
IRIS 4.5 01:47:07 10° W 01:51:39 71° SSW 01:54:30 10° ESE
Cosmos 2221 4.0 01:52:04 10° NNE 01:55:30 22° ENE 01:58:39 11° ESE
Cosmos 2333 Rocket 2.9 01:50:21 10° SW 01:55:59 61° WNW 02:01:40 10° NNE
Cosmos 1455 3.8 01:53:02 10° NNW 01:56:37 37° W 02:00:10 10° SSW
USA 186 4.4 01:54:46 10° SW 01:57:08 19° W 01:59:25 10° NW
Cosmos 1538 Rocket 4.3 01:52:50 10° SSW 01:58:11 77° WNW 02:03:31 10° NNE
SPOT 3 Rocket 3.7 01:53:41 10° SSE 01:58:54 84° WSW 02:04:10 10° NNW
NOSS 0 Rocket 3.9 01:53:22 10° S 01:59:24 63° ESE 02:05:30 10° NNE
Cosmos 2084 4.3 01:57:35 10° NW 02:01:53 48° WSW 02:06:07 10° SSE
Cosmos 2278 Rocket 2.6 01:56:31 10° NNW 02:02:03 51° ENE 02:07:03 12° SE
MetOp-B 4.3 02:06:59 11° SSE 02:12:04 59° ENE 02:17:20 10° N
SL-16 R/B 3.4 02:09:56 12° SE 02:13:27 22° E 02:17:40 10° NE
Meteor 1-27 4.3 02:14:43 10° N 02:20:32 80° E 02:26:09 11° SSE
Genesis I 4.0 02:17:00 10° SW 02:20:49 56° NW 02:24:40 10° NNE
Terra 3.6 02:18:01 11° ESE 02:20:49 18° ENE 02:23:58 10° NNE
IGS 5A 3.8 02:20:02 17° SE 02:23:00 49° ENE 02:27:01 10° N
Spot 2 Rocket 3.7 02:19:25 15° SSE 02:23:33 57° ENE 02:28:34 10° N
Cosmos 2112 Rocket 4.2 02:21:23 10° S 02:26:34 54° ESE 02:31:47 10° NNE
BREEZE M DEB (TANK) 1.5 02:29:35 10° WNW 02:32:06 79° NNE 02:32:49 35° ESE
BREEZE M DEB (TANK) 3.7 02:28:40 10° SW 02:32:39 63° SE 02:47:24 10° ENE
Cosmos 2058 3.3 02:33:45 20° SSE 02:36:12 44° E 02:40:08 10° NNE
Cosmos 1315 Rocket 3.4 02:34:30 10° NNW 02:38:35 58° W 02:42:07 13° S
Cosmos 2074 Rocket 3.9 02:35:10 10° S 02:41:20 72° E 02:47:31 10° NNE
Cosmos 2056 Rocket 4.3 02:37:57 10° N 02:43:06 41° ENE 02:46:09 22° ESE
Cosmos 2154 Rocket 4.3 02:40:49 19° SSE 02:45:04 47° E 02:51:00 10° NNE
Cosmos 2369 Rocket 4.4 02:44:34 10° NNE 02:47:15 13° NE 02:49:57 10° ENE
Cosmos 1980 4.2 02:44:46 10° SW 02:50:21 63° WNW 02:55:59 10° NNE
Cosmos 44 2.9 02:46:28 10° SSW 02:50:46 90° NW 02:55:11 10° NNE
ISS -3.6 02:48:36 10° SSW 02:51:50 46° SE 02:55:04 10° ENE
Elektron 1 4.1 02:49:11 10° SW 02:52:04 76° NW 02:56:17 10° NE
Cosmos 1680 Rocket 3.7 02:46:54 10° SSW 02:52:13 77° WNW 02:57:34 10° NNE
DELTA 2 R/B (1) 3.5 02:47:53 10° W 02:53:25 70° S 02:57:10 21° ESE
Cosmos 1892 2.6 02:56:31 24° S 02:58:41 88° E 03:02:31 10° N
Geosat 4.4 02:55:58 21° S 02:59:15 56° WSW 03:04:13 10° NW
Lacrosse 5 rocket 3.4 02:56:45 10° NNW 02:59:48 20° NNE 03:02:38 10° ENE
Cosmos 2327 Rocket 4.4 02:57:32 19° S 03:02:06 71° E 03:08:11 10° NNE
Aureole 2 Rocket 2.8 03:00:29 10° N 03:03:19 38° ENE 03:03:33 37° E
Cosmos 2237 Rocket 3.1 03:01:05 10° SW 03:06:36 51° WNW 03:12:10 10° NNE
Cosmos 158 Rocket 4.4 03:03:15 10° SSW 03:08:02 57° WNW 03:12:55 10° NNE
Meteor 2-17 Rocket 4.4 03:02:52 13° S 03:08:20 83° W 03:14:25 10° N
Landsat 7 4.4 03:07:35 20° S 03:10:40 52° W 03:15:20 10° NNW
NOSS 3-4 (A) 4.0 03:04:20 10° NW 03:11:27 74° WSW 03:16:06 27° SSE
NOSS 3-4 (C) 4.0 03:04:26 10° NW 03:11:34 75° WSW 03:16:12 27° SSE
Cosmos 1606 4.3 03:10:03 10° NNE 03:13:06 21° ENE 03:13:25 21° E
Resurs 01 Rocket 3.9 03:10:05 10° SW 03:13:16 19° W 03:16:28 10° NW
Gbstr 26 Del rocket 3.5 03:10:37 10° WSW 03:14:17 51° NNW 03:18:00 10° NE
Cosmos 1943 Rocket 3.5 03:10:48 10° N 03:15:42 29° NE 03:18:23 20° E
ERS-1 Rocket 3.0 03:16:30 32° S 03:18:55 82° WSW 03:23:59 10° NNW
Cosmos 1340 4.3 03:22:10 21° ENE 03:22:10 21° ENE 03:24:23 10° NE
Cosmos 1825 2.0 03:26:00 61° SSE 03:26:32 75° E 03:30:20 10° NNE
Cosmos 371 Rocket 3.8 03:23:11 10° N 03:27:52 46° ENE 03:29:12 37° ESE
Cosmos 2344 3.6 03:20:33 10° SW 03:28:06 79° NW 03:36:03 10° NE
SPOT 1/Viking Rocket 4.3 03:26:28 22° SSW 03:29:26 45° W 03:34:25 10° NNW
COSMOS 2455 3.5 03:24:48 10° NNW 03:30:36 46° NE 03:33:19 29° ESE
Cosmos 1408 3.0 03:30:37 39° SW 03:31:39 55° W 03:35:10 10° N
Cosmos 1624 Rocket 4.0 03:26:27 10° NNW 03:31:40 75° WSW 03:33:35 39° S
Cosmos 2221 4.1 03:29:16 10° NNW 03:33:05 30° W 03:35:30 18° SW
BREEZE-M DEB (TANK) 2.0 03:28:39 10° WNW 03:34:40 70° SW 03:34:51 68° S
ATLAS 2AS CENTAUR R/B 3.2 03:31:31 10° NW 03:38:41 53° WSW 03:41:54 31° S
CARTOSAT-1 4.3 03:38:11 33° SSW 03:39:39 46° W 03:43:49 10° NNW
USA 215 3.3 03:35:40 10° NE 03:42:04 54° SE 03:46:24 21° SSW
Cosmos 1943 4.3 03:43:26 26° E 03:43:26 26° E 03:47:47 10° NE
SPOT 5 3.3 03:41:54 34° SSW 03:43:40 53° W 03:48:14 10° NNW
Cosmos 2151 2.9 03:43:45 54° SSW 03:44:40 82° W 03:48:57 10° N
Cosmos 2278 Rocket 4.0 03:41:24 10° NW 03:45:43 23° W 03:48:54 14° SW
Cosmos 1346 Rocket 4.3 03:48:40 25° ENE 03:48:40 25° ENE 03:51:08 10° NNE
CZ-4C R/B 3.7 03:45:01 10° NNW 03:51:51 44° NE 03:56:50 22° ESE
MOS 1-B Rocket 4.5 03:47:01 10° NNE 03:53:33 44° E 03:54:53 39° SE
GEOS 3 Rocket 3.8 03:48:13 10° NNE 03:53:36 75° NW 03:58:53 10° SW
SL-16 R/B 2.9 03:51:43 11° SW 03:57:07 54° WNW 04:02:42 10° NNE
Cosmos 2297 3.8 03:51:54 10° NNW 03:57:36 68° WSW 03:59:13 46° S
JB-3 4.2 03:54:13 10° N 03:58:02 73° WNW 03:58:14 71° WSW
Terra 2.3 03:56:54 41° SSW 03:58:08 52° W 04:02:48 10° NNW
ALOS 2 4.4 04:00:04 19° ENE 04:00:36 19° ENE 04:03:42 10° NNE
Cosmos 1933 3.5 04:00:57 10° N 04:04:46 64° ENE 04:04:46 64° ENE
Cosmos 2366 rocket 4.0 04:03:46 47° SSE 04:05:34 67° E 04:11:51 10° NNE
Cosmos 1959 Rocket 4.4 04:04:06 48° SSE 04:05:46 68° E 04:11:58 10° NNE
Cosmos 1420 Rocket 4.1 04:03:10 10° NNW 04:08:26 68° WSW 04:09:30 54° SSW
Cosmos 468 4.4 04:08:55 62° SSE 04:09:43 75° ESE 04:14:58 10° NNE
Cosmos 1328 Rocket 3.4 04:05:58 10° N 04:10:18 76° E 04:10:18 76° E
Cosmos 2218 Rocket 3.9 04:09:50 48° S 04:11:42 78° E 04:17:59 10° N
Cosmos 44 Rocket 3.1 04:13:02 71° ESE 04:13:02 71° ESE 04:17:37 10° NE
Cosmos 1515 Rocket 4.1 04:08:47 10° N 04:12:55 47° ENE 04:12:55 47° ENE
USA 267 4.5 04:07:16 10° E 04:13:10 38° NNE 04:19:05 10° NW
Cosmos 1766 Rocket 3.9 04:15:18 53° WSW 04:15:55 59° W 04:20:18 10° N
GP-B 3.3 04:15:40 10° N 04:19:50 60° ENE 04:19:50 60° ENE
Thor Agena Rocket 3.3 04:16:44 10° NNE 04:21:49 74° ESE 04:22:14 70° SE
Cosmos 1048 Rocket 4.0 04:26:12 60° SSW 04:27:11 83° WNW 04:32:27 10° NNE
ISS -1.7 04:25:45 10° W 04:28:43 28° NNW 04:31:41 10° NE
Cosmos 405 4.3 04:26:22 10° N 04:28:44 36° NNE 04:28:44 36° NNE
Cosmos 2369 Rocket 2.1 04:26:37 10° NNW 04:32:15 77° ENE 04:33:06 63° SE
Cosmos 1603 3.6 04:32:09 63° S 04:33:06 84° ESE 04:38:51 10° NNE
Cosmos 1151 Rocket 3.5 04:30:13 10° NNW 04:34:16 52° W 04:34:16 52° W
SL-8 Rocket 4.3 04:32:32 37° SW 04:34:47 59° W 04:40:52 10° N
Cosmos 1633 3.7 04:39:16 42° N 04:39:16 42° N 04:41:45 10° N
Lacrosse 5 rocket 2.1 04:35:25 10° NW 04:38:15 43° WNW 04:38:15 43° WNW
EO 1 Del DPAF 3.9 04:36:18 10° N 04:39:16 52° N 04:39:16 52° N
Cosmos 332 Rocket 4.3 04:37:32 10° NNW 04:42:07 46° WSW 04:42:07 46° WSW
Cosmos 1743 Rocket 3.7 04:43:00 65° NNE 04:43:00 65° NNE 04:46:49 10° N
Cosmos 1110 Rocket 4.0 04:39:54 10° NNW 04:45:12 69° ENE 04:45:38 66° ESE
RESURS DK-1 2.9 04:46:50 10° NNW 04:50:10 57° NNW 04:50:10 57° NNW
Cosmos 1452 Rocket 4.2 04:46:29 10° NNW 04:51:24 41° WSW 04:51:41 41° WSW
Cosmos 1943 Rocket 2.7 04:54:15 10° NW 04:59:35 43° WSW 04:59:53 43° WSW
Cosmos 1727 Rocket 4.0 04:54:40 10° NNW 05:00:55 71° W 05:02:04 58° SSW
Lacrosse 5 2.3 05:08:05 50° ENE 05:08:05 50° ENE 05:12:00 10° NE
Cosmos 1269 Rocket 3.9 05:08:42 87° SSE 05:08:46 88° ESE 05:14:05 10° NNE
SL-4 R/B 4.5 05:12:40 12° N 05:12:40 12° N 05:12:58 10° N
Cosmos 1500 Rocket 4.2 05:12:10 49° WNW 05:12:10 49° WNW 05:16:05 10° N
Cosmos 2228 Rocket 3.4 05:07:30 10° NNW 05:11:32 65° NW 05:11:32 65° NW
Meteor 2-6 Rocket 3.9 05:07:28 10° N 05:12:54 85° E 05:13:06 82° SE
COSMOS 2455 3.9 05:11:08 10° NW 05:16:18 30° WSW 05:16:26 30° WSW
Cosmos 2263 4.3 05:12:28 10° NNW 05:18:09 63° WSW 05:18:21 63° WSW
Helios 1B rocket 4.4 05:19:53 10° NE 05:21:58 20° ENE 05:21:58 20° ENE
USA 215 4.0 05:18:44 10° NE 05:25:00 50° NNW 05:31:15 10° WSW
Cosmos 1943 4.0 05:25:12 35° WSW 05:26:56 45° WNW 05:32:21 10° NNE
Helios 1A 3.6 05:28:41 54° NNE 05:28:41 54° NNE 05:32:02 10° N
Cosmos 1805 Rocket 4.0 05:30:58 57° NNW 05:30:58 57° NNW 05:34:39 10° N
Cosmos 1607 4.1 05:32:17 48° WSW 05:33:57 67° NW 05:40:15 10° NNE
YAOGAN 11 4.5 05:37:09 63° NNE 05:37:09 63° NNE 05:41:05 10° N
ALOS 2 3.7 05:37:28 36° WNW 05:37:28 36° WNW 05:40:46 10° NNW
CZ-4C R/B 3.3 05:33:28 10° NW 05:40:42 52° WSW 05:41:59 48° SW
Meteor 1-10 Rocket 4.2 05:36:39 10° NNW 05:42:09 65° W 05:42:18 65° WSW
Cosmos 1656 Rocket 3.9 05:37:19 10° NNW 05:42:19 54° W 05:42:19 54° W
Cosmos 1238 Rocket 4.0 05:46:46 47° E 05:46:46 47° E 05:51:13 10° NNE
CZ-2D R/B 4.3 05:49:25 10° ENE 05:52:13 14° E 05:53:05 14° E
Cosmos 972 Rocket 4.1 05:49:36 10° NNW 05:55:29 74° ENE 05:55:57 70° ESE
USA 267 3.1 05:54:09 54° SE 05:55:48 81° SW 06:02:23 10° NW
Sich 1 4.0 06:01:23 40° NW 06:01:23 40° NW 06:04:59 10° N
Cosmos 1707 Rocket 4.2 05:57:14 10° NNW 06:00:48 51° NW 06:00:48 51° NW
Meteor 1-27 Rocket 3.7 05:59:30 10° NNW 06:05:09 69° W 06:05:28 67° WSW
Meteor 1-20 Rocket 4.4 06:04:43 54° ESE 06:05:09 55° E 06:10:41 10° NNE
USA 32 4.3 06:05:50 53° W 06:05:59 54° W 06:11:09 10° N
ISS -0.5 06:04:16 10° NW 06:06:18 15° N 06:08:21 10° NE
Cosmos 2123 Rocket 4.0 06:01:14 10° NNW 06:07:20 64° W 06:08:02 59° SW
Cosmos 1470 Rocket 4.0 06:08:18 59° NE 06:08:18 59° NE 06:12:12 10° NNE
Cosmos 724 4.1 06:08:14 76° SSW 06:08:44 89° WNW 06:14:35 10° NNE
Cosmos 1633 Rocket 3.5 06:11:54 55° NW 06:11:54 55° NW 06:15:40 10° N
Cosmos 2369 Rocket 4.2 06:12:41 10° WNW 06:14:52 14° W 06:14:52 14° W
Cosmos 1992 Rocket 3.9 06:11:25 10° NNW 06:16:42 81° ENE 06:16:57 78° ESE
Cosmos 1862 Rocket 3.9 06:19:09 10° N 06:23:02 64° NW 06:23:02 64° NW
PSLV R/B 4.1 06:21:56 10° N 06:25:45 51° NW 06:25:45 51° NW
Cosmos 1605 Rocket 4.1 06:25:58 54° SW 06:27:05 63° W 06:33:18 10° N
ADEOS II 4.5 06:27:35 10° ENE 06:29:13 11° E 06:30:51 10° ESE
Cosmos 1153 Rocket 4.3 06:31:31 63° SSW 06:32:37 87° W 06:38:49 10° N
Cosmos 2251 Rocket 3.7 06:34:03 56° W 06:34:30 59° WNW 06:39:42 10° NNE
Resurs 1-4 Rocket 3.1 06:29:50 10° NNE 06:34:40 34° E 06:35:35 32° ESE
Cosmos 1602 4.4 06:38:20 52° NNE 06:38:20 52° NNE 06:41:21 10° N
Meteor 1-4 Rocket 3.9 06:35:48 10° NNW 06:38:07 35° NNW 06:38:07 35° NNW
SL-8 R/B 3.6 06:40:24 85° N 06:40:24 85° N 06:45:12 10° ENE
Cosmos 2242 Rocket 3.6 06:36:48 10° N 06:41:16 81° NE 06:41:16 81° NE
Okean 1 3.7 06:43:16 10° N 06:46:39 62° N 06:46:39 62° N
Lacrosse 5 3.5 06:47:13 17° W 06:50:15 29° NNW 06:54:42 10° NNE
Cosmos 1933 Rocket 3.8 06:51:59 56° WNW 06:51:59 56° WNW 06:55:57 10° N
Cosmos 1869 Rocket 3.8 06:56:12 57° E 06:56:18 57° E 07:00:33 10° NNE
Helios 1B rocket 3.8 06:54:54 10° N 06:58:16 28° WNW 06:58:16 28° WNW
Cosmos 2173 Rocket 3.9 06:56:53 52° S 06:58:37 87° E 07:04:58 10° N
Cosmos 2061 Rocket 4.3 06:56:52 39° SSE 06:59:03 60° E 07:05:15 10° NNE
Cosmos 1437 Rocket 3.7 06:55:14 10° N 06:59:04 42° ENE 06:59:27 41° E
MOZ.5/SAFIR/RUBIN 5/SL-8 3.8 07:00:30 65° SE 07:01:10 80° ENE 07:05:57 10° N
IRAS Rocket 4.1 07:00:59 52° SSE 07:02:24 87° ENE 07:07:55 10° NNW
Iridium 4 Rocket 4.4 07:03:21 38° W 07:04:01 39° W 07:09:04 10° NNW
Cosmos 1703 Rocket 3.5 07:02:14 10° NNW 07:06:39 75° W 07:06:39 75° W
Cosmos 1190 Rocket 4.0 07:07:27 57° SSE 07:08:21 69° ESE 07:13:35 10° NNE
Cosmos 2016 Rocket 4.0 07:07:36 43° SSE 07:09:38 72° E 07:15:50 10° NNE
Meteor 2-4 Rocket 4.0 07:06:14 10° N 07:12:11 71° E 07:14:40 36° SSE
Cosmos 405 Rocket 3.2 07:13:18 50° NW 07:13:18 50° NW 07:16:32 10° N
Meteor 1-14 Rocket 4.2 07:12:41 53° SW 07:13:49 66° WNW 07:19:28 10° N
ATLAS 5 CENTAUR R/B 3.4 07:11:19 10° NNW 07:14:55 59° NE 07:27:06 10° SE
SL-16 R/B 2.5 07:12:18 36° SSE 07:15:05 85° ENE 07:21:23 10° NNW
DELTA 2 DEB (DPAF) 4.0 07:17:30 67° WSW 07:17:38 68° WSW 07:22:05 10° NNW
Cosmos 1500 3.2 07:17:59 78° NE 07:17:59 78° NE 07:21:35 10° N
Cosmos 1697 Rocket 3.4 07:16:12 10° NNW 07:21:43 52° ENE 07:27:06 10° SE
SeaSat 1 2.5 07:18:06 10° NNE 07:23:02 66° ESE 07:24:07 50° S
Cosmos 614 Rocket 4.3 07:22:45 45° WSW 07:23:45 52° WNW 07:28:46 10° N
CZ-4B R/B 3.7 07:22:31 10° NNE 07:27:30 60° ESE 07:28:58 42° SSE
Cosmos 220 Rocket 3.7 07:24:51 10° NNW 07:29:06 77° WSW 07:29:21 74° SSW
IRS-1D 4.1 07:24:21 10° NNE 07:29:08 48° E 07:30:55 33° SSE
Cosmos 2082 Rocket 2.7 07:28:05 35° SSE 07:30:08 51° ESE 07:35:39 10° NE
CZ-2D R/B 2.1 07:27:25 10° N 07:32:47 74° WNW 07:34:24 46° SW
Cosmos 1666 3.1 07:32:43 48° ESE 07:33:11 52° E 07:36:51 10° NNE
Cosmos 1833 Rocket 2.6 07:31:40 47° SSW 07:33:23 90° ESE 07:39:02 10° NNE
Cosmos 1140 Rocket 3.4 07:32:14 50° SW 07:33:34 76° WNW 07:38:49 10° NNE
CZ-4C R/B 3.3 07:34:23 61° W 07:34:23 61° W 07:37:50 10° NNW
Aureole 1 Rocket 3.3 07:33:50 55° SSW 07:34:54 88° ESE 07:40:43 10° NNE
Cosmos 407 Rocket 3.9 07:36:02 41° WSW 07:37:31 54° WNW 07:42:46 10° N
COSMOS 2406 3.6 07:37:53 37° WSW 07:39:53 55° WNW 07:45:34 10° NNE
Cosmos 1656 3.6 07:34:54 10° NNW 07:40:15 62° WSW 07:41:57 41° S
CBERS-1 4.2 07:36:56 10° NNE 07:42:03 65° ESE 07:44:09 35° S
Abrixas rocket 4.0 07:41:01 11° NW 07:43:27 27° NNE 07:46:00 10° ENE
ISS -1.0 07:41:22 10° NW 07:44:00 21° NNE 07:46:39 10° ENE
Cosmos 1816 Rocket 4.5 07:37:52 10° N 07:44:16 86° W 07:47:48 29° S
Okean 1-7 4.1 07:43:21 10° NNW 07:47:06 29° W 07:47:06 29° W
Cosmos 2233 Rocket 3.9 07:53:28 29° S 07:56:50 87° E 08:03:07 10° N
Cosmos 1733 Rocket 2.9 07:57:57 42° S 07:59:24 88° E 08:03:44 10° N
Cosmos 676 Rocket 4.0 07:57:50 37° SW 07:59:51 70° WNW 08:05:10 10° NNE
ARIANE 5 R/B 3.4 07:56:08 10° NNE 08:01:00 44° E 08:04:30 18° SSE
BREEZE-M DEB (TANK) 3.4 07:59:39 10° WNW 08:02:37 83° SSW 08:13:16 10° SE
SL-08 R/B 4.1 07:58:25 10° SSE 08:03:01 52° ENE 08:07:43 10° N
Cosmos 1242 Rocket 4.5 08:01:35 10° NNE 08:04:34 26° ENE 08:07:33 10° SE
IRS-1C 4.4 07:59:28 10° NNE 08:04:48 66° ESE 08:08:02 24° S
Meteor 1-13 Rocket 4.2 07:59:32 10° NNW 08:05:14 66° W 08:08:17 27° S
deb Kosmos-1763 3.9 08:06:43 54° SSW 08:07:28 83° WNW 08:11:05 10° NNE
ADEOS II 2.0 08:04:16 10° NNE 08:09:33 85° WNW 08:12:21 29° SSW
AQUA 4.4 08:05:38 10° N 08:10:09 44° WNW 08:11:55 31° WSW
NPP 4.4 08:07:29 10° N 08:12:27 39° WNW 08:14:50 26° WSW
Resurs 1-4 Rocket 3.2 08:09:46 10° N 08:14:23 31° WNW 08:16:39 22° WSW
Cosmos 1378 4.2 08:12:53 10° N 08:16:30 44° ENE 08:20:03 10° SSE
Cosmos 1356 3.3 08:19:03 43° SSW 08:20:04 78° W 08:23:31 10° N
Okean 3 4.4 08:20:24 10° NNW 08:24:00 28° W 08:24:46 26° WSW
Cosmos 1536 3.5 08:25:47 29° WSW 08:27:04 38° WNW 08:30:53 10° N
ATLAS 5 CENTAUR R/B 2.6 08:25:04 10° NNW 08:30:54 77° NE 08:37:37 10° SE
Lacrosse 5 4.5 08:31:58 10° NW 08:34:44 14° N 08:37:30 10° NNE
CENTAUR R/B 4.1 08:30:55 10° SSE 08:35:30 25° ESE 08:40:39 10° NE
H-2A R/B 3.3 08:32:40 10° SE 08:36:50 44° ENE 08:40:56 10° N
Cosmos 1975 3.9 08:33:09 10° SSE 08:36:53 43° E 08:40:40 10° NNE
Gbstr 26 Del rocket 3.2 08:32:40 10° NW 08:37:01 83° NE 08:42:20 10° SE
Cosmos 2369 4.1 08:32:04 10° NW 08:37:26 42° WSW 08:42:09 13° S
Cosmos 1980 Rocket 2.1 08:31:59 10° NNW 08:37:41 73° WSW 08:43:20 10° SSE
SL-27 R/B 3.9 08:35:04 13° SSE 08:37:45 33° ESE 08:40:56 10° NE
CZ-2C R/B 3.9 08:36:02 10° NNE 08:39:55 42° E 08:43:44 10° S
CZ-4C R/B 4.4 08:38:08 10° SE 08:41:06 34° ENE 08:44:02 10° N
Cosmos 921 Rocket 3.5 08:37:30 10° NNW 08:41:35 39° W 08:44:02 20° SSW
IRS-P3 4.4 08:38:16 10° N 08:43:26 52° WNW 08:47:06 19° SW
IDEFIX/ARIANE 42P 2.8 08:39:30 10° NNE 08:44:41 68° ESE 08:49:47 10° S
BREEZE-M DEB (TANK) 3.2 08:46:12 10° WNW 08:49:51 52° NNE 08:52:37 10° E
ERS-2 2.8 08:47:43 10° SSE 08:51:17 55° ENE 08:54:52 10° N
Cosmos 1378 Rocket 3.8 08:48:21 10° NNW 08:52:39 52° W 08:56:31 12° SSW
Meteor 1-28 Rocket 3.4 08:51:07 15° S 08:54:01 50° W 08:57:39 10° NNW
Cosmos 1867 4.1 08:50:01 13° SSW 08:54:43 55° ESE 09:00:03 10° NE
Cosmos 2278 4.1 08:52:25 10° NW 08:57:47 43° WSW 09:03:07 10° S
SL-16 R/B 4.2 08:57:23 13° WSW 08:59:24 15° W 09:02:43 10° WNW
CZ-2C R/B 4.1 08:55:49 10° NE 08:59:56 29° E 09:03:55 10° SSE
SeaSat 1 4.2 08:56:36 10° N 09:00:05 20° NW 09:03:34 10° W
SL-16 R/B 3.1 08:54:58 10° NNW 09:00:31 52° ENE 09:06:02 10° SE
MSX 4.2 08:54:57 10° NNE 09:00:40 67° ESE 09:06:21 10° S
ERBS 3.5 08:59:02 14° S 09:01:25 33° SE 09:04:26 10° ENE
Okean 2 3.4 09:00:03 10° N 09:04:10 85° E 09:08:14 10° S
Cosmos 1464 Rocket 4.1 08:58:28 10° SSW 09:04:50 74° W 09:11:13 10° N
SL-19 R/B 3.7 09:02:15 10° NNE 09:05:13 87° ESE 09:08:15 11° SSW
Cosmos 1697 Rocket 3.9 09:01:02 10° NW 09:05:14 22° W 09:08:43 13° SW
Cosmos 1271 Rocket 2.5 09:04:45 10° NNW 09:08:33 81° W 09:12:16 10° S
CZ-2D R/B 3.9 09:07:40 10° N 09:11:53 49° WNW 09:15:42 12° SW
CZ-2D R/B 4.3 09:10:53 10° NW 09:11:54 11° WNW 09:12:55 10° WNW
Cosmos 1763 Rocket 3.6 09:06:51 10° NNW 09:11:59 55° WSW 09:17:08 10° S
Cosmos 2082 Rocket 3.6 09:09:56 11° WSW 09:14:30 26° NW 09:19:14 10° N
Cosmos 2034 Rocket 4.0 09:09:36 10° S 09:15:45 84° W 09:21:58 10° N
Abrixas rocket 1.8 09:16:11 10° WNW 09:19:03 61° SSW 09:21:53 10° SE
Cosmos 1544 3.6 09:17:21 11° SSW 09:20:31 41° WNW 09:23:58 10° N
ISS -3.8 09:17:47 10° NW 09:21:09 90° SW 09:24:30 10° SE
ATLAS 3B R/B 4.5 09:19:06 10° SSE 09:24:18 25° ESE 09:29:30 10° ENE
NOSS 3-2 (C) 3.7 09:19:13 10° SSW 09:24:43 65° ESE 09:30:59 10° NE
Cosmos 1743 4.2 09:22:56 11° WSW 09:25:39 21° WNW 09:28:36 10° NNW
Cosmos 1782 Rocket 3.9 09:22:11 10° SSW 09:26:31 50° WNW 09:30:49 10° N
Cosmos 1570 Rocket 4.0 09:21:47 10° NNW 09:27:02 72° WSW 09:32:17 10° S
Meteor 1-21 4.3 09:22:41 10° NNW 09:28:32 82° W 09:34:20 10° S
Cosmos 1707 3.7 09:30:17 10° N 09:34:05 52° E 09:37:53 10° SSE
COSMOS 2441 4.4 09:29:40 10° N 09:34:27 68° WNW 09:39:11 10° SSW
SAR-Lupe-4 4.2 09:31:34 10° SSE 09:35:05 60° ENE 09:38:38 10° N
NOSS 3-2 (A) 3.5 09:31:20 10° SW 09:36:57 67° NW 09:43:22 10° NNE
Landsat 5 3.7 09:34:18 10° S 09:38:02 42° W 09:41:42 10° NNW
Cosmos 540 Rocket 3.5 09:33:55 10° NNW 09:39:00 63° WSW 09:44:05 10° S
Cosmos 1242 Rocket 4.3 09:37:05 10° NW 09:39:12 15° W 09:41:18 10° SW
ARIANE 5 R/B 3.9 09:35:52 10° NNW 09:39:49 23° WNW 09:43:48 10° WSW
Cosmos 841 Rocket 3.6 09:34:48 10° NNW 09:39:52 58° WSW 09:44:57 10° S
Cosmos 2322 Rocket 2.3 09:35:55 10° NNW 09:41:37 90° NE 09:47:18 10° SSE
